Regional Weather Roundup
Issued by NWS Huntsville, AL

Home | Current Version | Previous Version | Text Only | Print | Product List | Glossary On
Versions: 1 2 3 4 5 6 7 8 9 10 11 12 13 14 15 16 17 18 19 20 21 22 23 24 25 26 27 28 29 30 31 32 33 34 35 36 37 38 39 40 41 42 43 44 45 46 47 48 49 50
000
ASUS44 KHUN 270610
RWRHUN

WEATHER ROUNDUP FOR THE TENNESSEE VALLEY
NATIONAL WEATHER SERVICE HUNTSVILLE AL
1200 AM CST FRI FEB 27 2015

ALZ001>004-270700-
NORTHWEST ALABAMA

CITY           SKY/WX    TMP DP  RH WIND       PRES   REMARKS
COURTLAND HCN    N/A     32 N/A N/A MISG        N/A
RUSSELLVILLE     N/A     30 N/A N/A MISG        N/A
SHOALS AIRPORT CLOUDY    32  23  69 N7        30.34R WCI  26
6HR MIN TEMP:  32; 6HR MAX TEMP:  42; 6HR PCP:  0.09;

SHOALS TVA RES   N/A     32 N/A N/A MISG        N/A
$$

ALZ005>007-016-270700-
NORTH CENTRAL ALABAMA

CITY           SKY/WX    TMP DP  RH WIND       PRES   REMARKS
DECATUR AP     CLOUDY    31  25  78 MISG      30.31R
6HR MIN TEMP:  30; 6HR MAX TEMP:  39;

HUNTSVILLE AP  CLOUDY    33  24  69 N13       30.29R WCI  24
6HR MIN TEMP:  33; 6HR MAX TEMP:  38;

HUN NWS/UAH      N/A     31  22  71 N9          N/A  WCI  23
MERIDIANVILLE  CLOUDY    32  23  69 N10       30.28R WCI  24
VINEMONT AP    FAIR      29  22  75 N7        30.28R WCI  22
$$

ALZ008>010-270700-
NORTHEAST ALABAMA

CITY           SKY/WX    TMP DP  RH WIND       PRES   REMARKS
ALBERTVILLE    CLEAR     30  28  93 N10       30.21F WCI  21
FORT PAYNE     CLEAR     27  23  86 CALM      30.22F FOG
SCOTTSBORO AP  MOCLDY    32  23  69 N7        30.27R WCI  26
SCOTTSBORO HCN   N/A     32 N/A N/A MISG        N/A
VALLEY HEAD      N/A     19 N/A N/A MISG        N/A
$$

TNZ076-096-097-270700-
SOUTHEASTERN MIDDLE TENNESSEE

CITY           SKY/WX    TMP DP  RH WIND       PRES   REMARKS
TULLAHOMA      MOCLDY    25  19  80 N10       30.28R WCI  15
WINCHESTER     CLOUDY    28  21  74 N10       30.28R WCI  19
$$

...SURROUNDING SITES...

CITY           SKY/WX    TMP DP  RH WIND       PRES   REMARKS
ATLANTA        PTCLDY    33  28  81 NW9       30.18R WCI  25
ANNISTON       PTCLDY    27  25  92 CALM      30.23S FOG
BIRMINGHAM     CLEAR     30  26  85 N6        30.27R WCI  24
CHATTANOOGA    CLEAR     32  23  69 N7        30.25R WCI  26
CORINTH        CLOUDY    30  21  69 N13       30.37R WCI  20
DALTON         CLEAR     30  28  93 CALM      30.22S
GADSDEN        CLEAR     28  27  93 CALM      30.21F
GOLDEN TRNGL   CLOUDY    32  25  74 N13       30.32S WCI  22
HALEYVILLE       N/A     30  24  78 N9        30.32R WCI  22
JACKSON TN     CLOUDY    25  14  63 N18       30.42R WCI  11
LEWISBURG        N/A     28  19  69 N12       30.32R WCI  18
MEMPHIS        FAIR      26  13  57 NE16      30.43S WCI  14
MURFREESBORO   CLOUDY    27  18  69 N10       30.33R WCI  17
NASHVILLE      CLOUDY    26  16  65 NW13      30.36R WCI  15
OXFORD MS      CLOUDY    27  18  69 NE10G17   30.41R WCI  17
ROME           CLEAR     31  27  85 NW7       30.22R WCI  24
SAVANNAH       CLOUDY    27  19  74 N8        30.37R WCI  18
TUPELO         CLOUDY    30  21  69 N13       30.37R WCI  20
TUSCALOOSA     CLEAR     34  30  85 NW3       30.31R
$$

...GULF COAST WEATHER...

CITY           SKY/WX    TMP DP  RH WIND       PRES   REMARKS
GULFPORT       PTCLDY    39  32  76 N10       30.26R WCI  32
PASCAGOULA     MOCLDY    40  31  70 N16G23    30.25R WCI  31
MOBILE         PTCLDY    36  29  75 N13       30.26R WCI  27
GULF SHORES    MOCLDY    39  33  78 NE5       30.25R
PENSACOLA      MOCLDY    40  34  79 N9        30.24R WCI  34
DESTIN         CLOUDY    40  32  73 N13       30.22S WCI  32
APPALACHICOLA  CLOUDY    47  38  71 N8        30.18R
$$




USA.gov is the U.S. government's official web portal to all federal, state and local government web resources and services.